Location: La Estación
(39.9833°N, 3.9500°W)
Time: 16:12:29
(UTC+00:00)

Meteor 1-13 Rocket - Pass Details

Date: 14 June 2025
Orbit: 828 x 913 km, 81.3° (Epoch: 19 July)

Event Time Altitude Azimuth Distance (km) Brightness Sun altitude
Exits shadow 21:21:30 15° 173° (S) 2,242 5.9 -14.8°
Maximum altitude 21:26:24 63° 95° (E) 1,012 4.4 -15.4°
Drops below altitude 10° 21:32:12 10° 16° (NNE) 2,580 7.2 -16.1°
Sets 21:34:40 0° 13° (NNE) 3,514 8.0 -16.4°
